UOSAT 2 (UO-11) (14781 NORAD) Tracking and Keplerian Element Data

This shows tracking and keplerian element data for the satellite.

Feedback or suggestion? Click here.




ElementValue
Catalog14781
NameUOSAT 2 (UO-11)
Epoch Orbit99978
Epoch Day261.8915128
Epoch Year2021
RAAN257.1554
Inclination97.5984
Eccentricity0.0009613
Argument of Perigee127.8781
Mean Anonmoly232.3305
Mean Motion14.83325518
Decay Rate1.44E-06
L11 14781U 84021B 21261.89151280 .00000144 00000-0 23678-4 0 9991
L22 14781 97.5984 257.1554 0009613 127.8781 232.3305 14.83325518999787

Live tracking and technical data element details for UOSAT 2 (UO-11) (NORAD 14781). UOSAT 2 (UO-11) can be tracked NOW for your location showing map with azimuth and elevation plus other details from your city location.

Track the satellite on the map from your city or location and see movement details for azimuth, elevation, latitude, longitude, range, height, and movement on the map or in text.







IsCatalogInMostPopularTable: catalog: 14781, numindb: 616
Update: records affected: 1



GetName: 14781 UOSAT 2 (UO-11)

Hit Count: updated at: Sun, 26 Sep 2021 01:12:54 GMT